Lid_Strength_Index
13 13 13 13 13 14 14 15 15 16 17 17 17 18 18 18 19 19 19 19 20 20 20 19 20 19 20 20 19 19 20 20 22 20 19 19 19 19 18 17 17 18 17
13 13 14 14 15 14 15 15 16 16 17 17 17 18 18 18 18 19 20 19 20 20 20 20 20 19 20 20 21 20 20 19 20 22 20 20 19 18 18 19 18 17 17
14 14 15 15 15 15 15 15 16 17 17 17 18 18 18 18 19 19 19 19 20 20 20 20 21 21 21 21 20 20 20 19 20 21 21 19 19 18 18 18 18 17 16
14 14 14 14 15 14 14 16 17 17 17 18 18 18 18 18 18 19 19 20 20 20 20 20 20 20 20 20 20 19 19 20 20 20 20 20 19 18 18 19 19 17 17
14 14 15 14 14 15 16 16 16 17 17 17 18 18 18 18 18 19 19 20 20 21 20 19 20 19 18 18 19 19 19 20 20 20 20 19 19 18 19 18 18 18 18
13 14 14 14 15 16 16 16 17 17 17 17 18 18 19 19 16 16 18 20 20 20 20 20 19 19 18 16 15 15 15 19 20 19 19 19 18 17 17 18 18 19 20
14 13 14 15 15 16 17 17 17 17 17 18 18 19 19 19 15 15 16 19 19 19 19 19 18 18 18 18 16 15 15 15 15 16 18 18 18 18 17 18 18 18 18
14 14 15 15 16 17 17 17 18 18 18 19 19 19 19 19 14 14 16 19 19 19 18 18 18 18 18 18 18 18 18 17 17 17 17 17 16 16 15 16 16 17 18
16 16 17 17 17 19 19 19 19 19 19 19 19 19 19 19 14 14 16 19 19 19 18 17 17 18 17 16 17 19 18 17 15 14 13 13 13 13 13 17 20 21 22
16 17 18 18 18 19 19 19 19 19 18 19 19 19 19 18 14 13 15 18 19 19 18 17 17 18 17 16 19 20 19 18 17 18 17 16 16 17 16 17 19 22 22
18 19 20 19 18 18 19 19 19 19 19 19 20 19 19 18 16 13 14 18 19 19 19 19 18 16 16 16 16 18 19 17 18 20 21 21 20 19 18 18 18 19 21
19 19 19 21 20 18 19 19 19 19 20 20 21 21 20 19 16 13 14 16 17 20 20 19 19 17 16 16 16 17 16 16 23 23 23 22 21 20 18 18 17 17 17
17 18 18 17 18 18 19 19 20 20 20 21 21 22 22 21 18 14 14 15 16 19 19 18 17 17 17 18 18 17 19 22 23 24 23 22 20 19 18 18 18 17 17
16 16 17 18 19 18 18 18 19 20 20 20 21 22 22 22 20 17 16 15 16 17 17 18 18 20 20 20 21 20 21 21 22 22 22 20 19 20 20 18 19 19 20
15 16 18 18 18 19 19 18 19 18 18 20 20 20 21 22 20 17 16 17 17 18 23 24 25 24 23 23 22 22 22 22 22 21 21 21 20 19 20 19 19 20 21
18 16 18 18 19 19 19 19 16 16 16 15 16 18 19 18 17 15 15 15 15 16 25 25 25 25 24 23 24 23 22 22 20 20 21 21 21 21 21 20 19 20 20
21 18 17 19 19 20 20 20 21 17 16 15 15 15 17 17 16 15 15 15 15 18 26 25 25 25 25 24 24 23 23 21 20 20 21 21 21 21 21 21 20 19 19
21 19 17 18 19 20 20 20 20 20 21 19 16 16 16 16 15 15 15 15 19 24 27 27 26 26 26 25 24 24 23 22 22 22 22 22 22 22 22 21 20 20 19
22 20 18 17 19 19 20 21 20 20 20 20 18 16 16 14 14 14 14 19 25 28 28 28 28 27 27 27 26 27 27 26 25 25 24 23 22 22 21 20 19 19 19
22 20 19 18 19 20 21 20 20 20 20 19 19 19 17 16 16 18 24 24 25 27 28 28 30 30 30 29 30 31 30 29 28 26 25 23 22 21 21 19 19 19 19
21 20 18 17 19 19 20 20 20 19 19 19 19 17 14 16 21 24 25 26 26 27 28 29 31 33 32 32 33 34 33 28 28 27 25 24 22 22 20 18 19 19 19
20 19 16 17 18 18 18 17 17 17 17 18 19 17 14 22 23 25 25 26 27 28 30 30 31 32 31 32 34 36 33 31 30 28 25 24 23 21 19 19 19 19 20
20 18 17 17 18 17 17 17 17 17 20 19 17 18 21 22 24 25 26 27 29 31 31 32 32 32 33 34 35 34 33 30 29 27 25 25 23 20 19 19 20 20 21
18 18 18 19 18 18 19 19 19 20 20 19 18 22 23 24 25 26 27 29 30 30 31 32 33 33 34 35 34 34 32 30 29 27 26 24 20 19 19 20 20 20 20
19 19 20 20 20 20 21 21 21 21 20 22 23 24 24 25 26 27 28 29 29 29 30 31 32 32 33 32 32 33 31 26 26 24 21 18 18 20 20 20 20 20 20
21 21 21 21 22 22 22 22 22 22 23 24 25 25 25 26 27 27 27 27 28 28 29 29 30 31 31 32 32 29 24 20 20 18 15 15 21 19 19 21 21 20 20